Hourly Data Report for June 12, 2021

MANIWAKI AIRPORT
QUEBEC
Current Station Operator: ECCC - MSC

46°16'29.000" N
75°59'31.000" W
199.70 m
7034482
71721
WMJ

Download Data

Hourly Data (June 2021)
Hourly Data Report for June 12, 2021
TIME
LST
Temp Definition
°C
Dew Point Definition
°C
Rel Hum Definition
%
Precip. Amount Definition
mm

Wind Dir Definition
10's deg

Wind Spd Definition
km/h
Visibility Definition
km
Stn Press Definition
kPa
Hmdx Definition


Wind Chill Definition


Weather Definition


00:00 11.2 9.8 91 0.0 33 3   98.91     LegendNANA
01:00 11.7 9.1 84 0.0 1 3   98.87     LegendNANA
02:00 10.6 7.5 81 0.0 35 7   98.85     LegendNANA
03:00 8.7 6.1 83 0.0 1 6   98.87     LegendNANA
04:00 10.0 7.4 84 0.0 1 10   98.90     LegendNANA
05:00 11.0 7.2 77 0.0 36 8   98.94     LegendNANA
06:00 13.0 6.9 66 0.0 1 10   98.96     LegendNANA
07:00 15.2 7.8 61 0.0 35 8   99.01     LegendNANA
08:00 17.6 7.9 53 0.0 2 6   99.00     LegendNANA
09:00 20.8 5.0 35 0.0 3 10   98.96     LegendNANA
10:00 21.9 2.9 29 0.0 36 11   98.94     LegendNANA
11:00 23.2 4.2 29 0.0 36 10   98.89     LegendNANA
12:00 23.6 1.5 23 0.0 34 9   98.86     LegendNANA
13:00 23.8 -0.2 20 0.0 1 10   98.79     LegendNANA
14:00 24.8 2.3 23 0.0 1 10   98.76     LegendNANA
15:00 25.1 2.2 22 0.0 25 8   98.72     LegendNANA
16:00 25.3 1.6 21 0.0 30 13   98.69     LegendNANA
17:00 24.8 2.9 24 0.0 26 8   98.67     LegendNANA
18:00 23.8 5.4 30 0.0 32 3   98.67     LegendNANA
19:00 20.3 8.7 47 0.0   0   98.65     LegendNANA
20:00 16.4 10.3 67 0.0   0   98.65     LegendNANA
21:00 14.1 9.9 76 0.0 34 1   98.70     LegendNANA
22:00 12.4 9.4 82 0.0 18 2   98.71     LegendNANA
23:00 11.1 8.2 82 0.0   0   98.75     LegendNANA

Notes on Data Quality.

Legend

  • E = Estimated
  • M = Missing
  • NA = Not Available*
  • [empty] = Indicates an unobserved value
Date modified: